Simultaneous Nadir Overpasses (SNOs) Predictions

Prediction of SNOs between AQUA and NOAA-19 Satellite Orbit:

Table of predicted SNOs for the next 14.0 days since TLE Epoch: 7/18/2020
Index Date (AQUA) Time (AQUA) Lat,Lon (AQUA) SZA (AQUA ) Date (NOAA-19) Time (NOAA-19) Lat,Lon (NOAA-19) SZA (NOAA-19 ) Distance(km) Time Diff (sec)
1 07/19/2020 04:56:24 79.51, 79.03 60.07 07/19/2020 04:55:18 79.43, 75.73 60.36 67.56 66
2 07/19/2020 05:45:54 -79.66,-114.38 119.70 07/19/2020 05:46:15 -79.68,-114.49 119.68 3.32 21
3 07/21/2020 11:19:39 79.66, -17.87 60.74 07/21/2020 11:19:27 79.65, -17.97 60.75 2.27 12
4 07/23/2020 16:53:23 -79.67, 78.64 118.80 07/23/2020 16:52:49 -79.65, 78.72 118.81 2.89 34
5 07/23/2020 17:42:50 79.67,-113.71 61.21 07/23/2020 17:43:43 79.68,-113.68 61.20 1.17 53
6 07/25/2020 22:27:07 79.64, 175.40 61.64 07/25/2020 22:26:01 79.63, 175.35 61.67 1.62 66
7 07/25/2020 23:16:34 -79.68, -17.21 118.30 07/25/2020 23:17:05 -79.66, -17.08 118.34 3.04 31
8 07/28/2020 04:50:18 79.65, 79.53 62.17 07/28/2020 04:50:17 79.66, 79.62 62.17 1.84 1
9 07/30/2020 10:24:01 -79.63, 176.27 117.34 07/30/2020 10:23:38 -79.65, 176.28 117.31 1.93 23
